{"data":{"norad_id":48975,"intl_designator":"2021-060J","name":"ONEWEB-0257","alt_names":[],"object_type":"PAYLOAD","status":"ACTIVE","operator":null,"country":"UK","launch_date":"2021-07-01","launch_site_code":"VOSTO","launch_vehicle":null,"mission":null,"orbit_class":"UNKNOWN","rcs_meters":null,"size_class":null,"mass_kg":null,"dimensions":null,"purposes":["comms"],"wikipedia_slug":null,"has_3d_model":false,"image_url":null,"decayed_at":null,"tle_current":{"epoch":"2026-09-20T04:11:57.972192Z","epoch_age_seconds":49979,"freshness":"FRESH","line1":"1 48975U 21060J   26263.17497653  .00000005  00000+0 -20556-4 0  9990","line2":"2 48975  87.9156 209.9130 0002076  72.7017 287.4341 13.16594034252086","mean_motion":13.16594034,"eccentricity":0.0002076,"inclination_deg":87.9156,"raan_deg":209.913,"arg_perigee_deg":72.7017,"mean_anomaly_deg":287.4341,"bstar":-2.0556e-5,"rev_number":25208,"period_min":109.37312207204,"perigee_km":1196.1847668429,"apogee_km":1199.3302782486,"semimajor_km":7575.8945225457,"source":"CELESTRAK","updated_at":"2026-09-20T09:00:44.624520Z"}}}